Wasilla, AK

10:55 AM AKDT on June 26, 2017 (GMT -0800)
Wasilla

Weather History for PAWS - April, 2013

Change the Weather History Date:

Monday, April 29, 2013

  Actual Average Record
Temperature  
Mean Temperature 32 °F -  
Max Temperature 42 °F 54 °F 71 °F (2005)
Min Temperature 23 °F 32 °F 23 °F (2013)
Degree Days  
Heating Degree Days 32    
Moisture  
Dew Point 11 °F    
Average Humidity 39    
Maximum Humidity 59    
Minimum Humidity 29    
Precipitation  
Precipitation 0.00 in - - ()
Sea Level Pressure  
Sea Level Pressure 30.14 in    
Wind  
Wind Speed 5 mph (ENE)    
Max Wind Speed 9 mph    
Max Gust Speed -    
Visibility 10 miles    
Events      
Averages and records for this station are not official NWS values.
T = Trace of Precipitation, MM = Missing Value Source: NWS Daily Summary

Daily Weather History Graph

Daily Weather History Graph

Search for Another Location

Airport or City:

Trip Planner

Search our weather history database for the weather conditions in past years. The results will help you decide how hot, cold, wet, or windy it might be!

Date:

Astronomy

Apr. 29, 2013 Rise Set
Actual Time 5:51 AM AKDT 10:00 PM AKDT
Civil Twilight 4:55 AM AKDT 10:58 PM AKDT
Nautical Twilight 3:20 AM AKDT 12:37 AM AKDT
Astronomical Twilight Sun does not set Sun does not set
Moon 2:12 AM AKDT (4/29) 8:51 AM AKDT (4/29)
Length of Visible Light 18h 03m
Length of Day
16h 09m
Waning Gibbous, 79% of the Moon is Illuminated
Apr 29
Waning Gibbous
May 2
Last Quarter
May 9
New
May 17
First Quarter
May 24
Full

Hourly Weather History & Observations

Time (AKDT) Temp. Windchill Dew Point Humidity Pressure Visibility Wind Dir Wind Speed Gust Speed Precip Events Conditions
12:16 AM 33.8 °F 27.0 °F 6.8 °F 32% 30.14 in 10.0 mi ENE 8.1 mph - N/A   Clear
12:36 AM 33.8 °F 28.6 °F 6.8 °F 32% 30.14 in 10.0 mi ENE 5.8 mph - N/A   Clear
12:56 AM 33.8 °F 28.6 °F 6.8 °F 32% 30.14 in 10.0 mi ENE 5.8 mph - N/A   Clear
1:16 AM 32.0 °F 25.6 °F 6.8 °F 35% 30.15 in 10.0 mi ENE 6.9 mph - N/A   Clear
1:36 AM 32.0 °F 26.4 °F 6.8 °F 35% 30.15 in 10.0 mi ENE 5.8 mph - N/A   Clear
1:56 AM 30.2 °F 26.7 °F 8.6 °F 40% 30.15 in 10.0 mi ENE 3.5 mph - N/A   Clear
2:16 AM 30.2 °F 25.4 °F 10.4 °F 44% 30.16 in 10.0 mi ENE 4.6 mph - N/A   Clear
2:36 AM 30.2 °F - 8.6 °F 40% 30.16 in 10.0 mi Calm Calm - N/A   Clear
2:56 AM 30.2 °F - 6.8 °F 37% 30.16 in 10.0 mi Calm Calm - N/A   Clear
3:16 AM 28.4 °F - 8.6 °F 43% 30.15 in 10.0 mi Calm Calm - N/A   Clear
3:36 AM 26.6 °F 21.2 °F 8.6 °F 47% 30.15 in 10.0 mi ENE 4.6 mph - N/A   Clear
3:56 AM 28.4 °F - 8.6 °F 43% 30.15 in 10.0 mi Calm Calm - N/A   Clear
4:16 AM 26.6 °F 22.6 °F 8.6 °F 47% 30.15 in 10.0 mi NW 3.5 mph - N/A   Clear
4:36 AM 23.0 °F - 10.4 °F 59% 30.15 in 10.0 mi Calm Calm - N/A   Clear
4:56 AM 24.8 °F - 8.6 °F 50% 30.15 in 10.0 mi Calm Calm - N/A   Clear
5:16 AM 26.6 °F 22.6 °F 10.4 °F 51% 30.15 in 10.0 mi NE 3.5 mph - N/A   Clear
5:36 AM 26.6 °F 20.0 °F 6.8 °F 43% 30.15 in 10.0 mi NNE 5.8 mph - N/A   Clear
5:56 AM 26.6 °F 21.2 °F 8.6 °F 47% 30.15 in 10.0 mi NNE 4.6 mph - N/A   Clear
6:16 AM 26.6 °F 22.6 °F 6.8 °F 43% 30.16 in 10.0 mi NNE 3.5 mph - N/A   Clear
6:36 AM 28.4 °F 19.7 °F 6.8 °F 40% 30.16 in 10.0 mi NE 9.2 mph - N/A   Clear
6:56 AM 28.4 °F 21.2 °F 6.8 °F 40% 30.16 in 10.0 mi NE 6.9 mph - N/A   Clear
7:16 AM 28.4 °F 21.2 °F 6.8 °F 40% 30.16 in 10.0 mi ENE 6.9 mph - N/A   Clear
7:36 AM 28.4 °F 23.3 °F 8.6 °F 43% 30.16 in 10.0 mi ENE 4.6 mph - N/A   Clear
7:56 AM 28.4 °F 20.4 °F 6.8 °F 40% 30.17 in 10.0 mi ENE 8.1 mph - N/A   Clear
8:16 AM 30.2 °F 23.4 °F 6.8 °F 37% 30.17 in 10.0 mi ENE 6.9 mph - N/A   Clear
8:36 AM 30.2 °F 23.4 °F 6.8 °F 37% 30.17 in 10.0 mi NE 6.9 mph - N/A   Clear
8:56 AM 30.2 °F 23.4 °F 6.8 °F 37% 30.17 in 10.0 mi ENE 6.9 mph - N/A   Clear
9:16 AM 30.2 °F 25.4 °F 6.8 °F 37% 30.17 in 10.0 mi ENE 4.6 mph - N/A   Clear
9:36 AM 32.0 °F - 6.8 °F 35% 30.17 in 10.0 mi Calm Calm - N/A   Clear
9:56 AM 32.0 °F 26.4 °F 8.6 °F 38% 30.17 in 10.0 mi East 5.8 mph - N/A   Clear
10:16 AM 33.8 °F 30.8 °F 8.6 °F 35% 30.17 in 10.0 mi ENE 3.5 mph - N/A   Clear
10:36 AM 33.8 °F 30.8 °F 8.6 °F 35% 30.17 in 10.0 mi East 3.5 mph - N/A   Clear
10:56 AM 33.8 °F 30.8 °F 8.6 °F 35% 30.16 in 10.0 mi ESE 3.5 mph - N/A   Clear
11:16 AM 33.8 °F 29.6 °F 6.8 °F 32% 30.16 in 10.0 mi East 4.6 mph - N/A   Clear
11:36 AM 35.6 °F 32.8 °F 8.6 °F 33% 30.16 in 10.0 mi NE 3.5 mph - N/A   Clear
11:56 AM 35.6 °F - 8.6 °F 33% 30.16 in 10.0 mi Calm Calm - N/A   Clear
12:16 PM 37.4 °F 34.9 °F 10.4 °F 33% 30.16 in 10.0 mi South 3.5 mph - N/A   Clear
12:36 PM 37.4 °F 34.9 °F 12.2 °F 36% 30.16 in 10.0 mi WSW 3.5 mph - N/A   Clear
12:56 PM 37.4 °F - 12.2 °F 36% 30.15 in 10.0 mi Calm Calm - N/A   Clear
1:16 PM 39.2 °F - 12.2 °F 33% 30.14 in 10.0 mi Calm Calm - N/A   Clear
1:36 PM 39.2 °F 35.9 °F 12.2 °F 33% 30.14 in 10.0 mi South 4.6 mph - N/A   Clear
1:56 PM 39.2 °F 35.9 °F 12.2 °F 33% 30.14 in 10.0 mi SSE 4.6 mph - N/A   Clear
2:16 PM 39.2 °F 35.0 °F 12.2 °F 33% 30.14 in 10.0 mi SSE 5.8 mph - N/A   Clear
2:36 PM 41.0 °F 35.2 °F 12.2 °F 31% 30.13 in 10.0 mi South 9.2 mph - N/A   Clear
2:56 PM 41.0 °F 35.2 °F 12.2 °F 31% 30.13 in 10.0 mi SSW 9.2 mph - N/A   Clear
3:16 PM 41.0 °F 35.8 °F 12.2 °F 31% 30.13 in 10.0 mi WSW 8.1 mph - N/A   Clear
3:36 PM 42.8 °F 38.0 °F 12.2 °F 29% 30.13 in 10.0 mi NNW 8.1 mph - N/A   Partly Cloudy
3:56 PM 41.0 °F 39.0 °F 12.2 °F 31% 30.13 in 10.0 mi SW 3.5 mph - N/A   Partly Cloudy
4:16 PM 42.8 °F 38.6 °F 12.2 °F 29% 30.13 in 10.0 mi West 6.9 mph - N/A   Scattered Clouds
4:36 PM 42.8 °F 39.3 °F 14.0 °F 31% 30.13 in 10.0 mi WSW 5.8 mph - N/A   Partly Cloudy
4:56 PM 41.0 °F 39.0 °F 12.2 °F 31% 30.13 in 10.0 mi WSW 3.5 mph - N/A   Mostly Cloudy
5:16 PM 42.8 °F 41.1 °F 12.2 °F 29% 30.13 in 10.0 mi NW 3.5 mph - N/A   Mostly Cloudy
5:36 PM 41.0 °F 37.1 °F 12.2 °F 31% 30.13 in 10.0 mi NW 5.8 mph - N/A   Mostly Cloudy
5:56 PM 39.2 °F - 12.2 °F 33% 30.12 in 10.0 mi Calm Calm - N/A   Overcast
6:16 PM 39.2 °F 35.9 °F 15.8 °F 39% 30.12 in 10.0 mi NE 4.6 mph - N/A   Overcast
6:36 PM 39.2 °F 37.0 °F 12.2 °F 33% 30.12 in 10.0 mi NNE 3.5 mph - N/A   Overcast
6:56 PM 39.2 °F 33.6 °F 15.8 °F 39% 30.11 in 10.0 mi NNE 8.1 mph - N/A   Overcast
7:16 PM 39.2 °F 35.0 °F 15.8 °F 39% 30.11 in 10.0 mi NNE 5.8 mph - N/A   Overcast
7:36 PM 39.2 °F 35.0 °F 15.8 °F 39% 30.11 in 10.0 mi ENE 5.8 mph - N/A   Overcast
7:56 PM 39.2 °F 34.2 °F 15.8 °F 39% 30.10 in 10.0 mi NE 6.9 mph - N/A   Mostly Cloudy
8:16 PM 39.2 °F 33.0 °F 17.6 °F 42% 30.10 in 10.0 mi NE 9.2 mph - N/A   Clear
8:36 PM 39.2 °F 34.2 °F 19.4 °F 45% 30.10 in 10.0 mi NE 6.9 mph - N/A   Clear
8:56 PM 37.4 °F 33.8 °F 19.4 °F 48% 30.10 in 10.0 mi NE 4.6 mph - N/A   Mostly Cloudy
9:16 PM 37.4 °F 32.1 °F 17.6 °F 45% 30.10 in 10.0 mi ENE 6.9 mph - N/A   Overcast
9:36 PM 37.4 °F 34.9 °F 15.8 °F 41% 30.10 in 10.0 mi East 3.5 mph - N/A   Overcast
9:56 PM 37.4 °F 33.8 °F 15.8 °F 41% 30.10 in 10.0 mi ENE 4.6 mph - N/A   Overcast
10:16 PM 37.4 °F 32.8 °F 17.6 °F 45% 30.09 in 10.0 mi NE 5.8 mph - N/A   Overcast
10:36 PM 35.6 °F 32.8 °F 19.4 °F 52% 30.09 in 10.0 mi ENE 3.5 mph - N/A   Mostly Cloudy
10:56 PM 35.6 °F 31.7 °F 17.6 °F 48% 30.09 in 10.0 mi ENE 4.6 mph - N/A   Scattered Clouds
11:16 PM 35.6 °F 30.7 °F 17.6 °F 48% 30.09 in 10.0 mi East 5.8 mph - N/A   Mostly Cloudy
11:36 PM 35.6 °F 30.7 °F 17.6 °F 48% 30.09 in 10.0 mi ENE 5.8 mph - N/A   Overcast
11:56 PM 35.6 °F 29.2 °F 17.6 °F 48% 30.09 in 10.0 mi East 8.1 mph - N/A   Overcast